Location: Unspecified
(0.0000°N, 0.0000°E)
Time: 23:54:15
(UTC+00:00)

Envisat - Pass Details

Date: 21 February 2020
Orbit: 764 x 766 km, 98.1° (Epoch: 25 February)

Event Time Altitude Azimuth Distance (km) Brightness Sun altitude
Rises 18:52:16 0° 188° (S) 3,231 6.5 -9.5°
Reaches altitude 10° 18:54:51 10° 199° (SSW) 2,302 5.9 -10.1°
Maximum altitude 18:59:09 28° 258° (WSW) 1,398 5.3 -11.2°
Drops below altitude 10° 19:03:27 10° 316° (NW) 2,293 5.9 -12.2°
Sets 19:06:02 0° 328° (NNW) 3,216 6.5 -12.9°
